Satellite-Ground Cal/Val Site Overpasses Predictions

Prediction of Satellite NPP Overpassing Cal/Val Site: Antarctic Dome C

Ground Cal/Val Site Location: Latitude: -75.10, Longitude: 123.35; Satellite-Ground Site NADIR distance within 100 km.

Table of predicted overpasses for the next 14.0 days since TLE Epoch: 3/18/2023
Interval Starting Time Ending Time Minimum Distance Time Minimum Distance (km)
1 03/19/2023 14:56:57 03/19/2023 14:57:26 03/19/2023 14:57:11 23.60
2 03/20/2023 14:38:16 03/20/2023 14:38:32 03/20/2023 14:38:24 83.40
3 03/21/2023 07:39:50 03/21/2023 07:40:18 03/21/2023 07:40:04 31.05
4 03/22/2023 07:21:06 03/22/2023 07:21:24 03/22/2023 07:21:15 78.99
5 03/24/2023 15:03:23 03/24/2023 15:03:46 03/24/2023 15:03:35 60.69
6 03/25/2023 14:44:34 03/25/2023 14:45:00 03/25/2023 14:44:47 48.33
7 03/26/2023 07:46:15 03/26/2023 07:46:37 03/26/2023 07:46:26 66.48
8 03/27/2023 07:27:25 03/27/2023 07:27:51 03/27/2023 07:27:38 41.44
9 03/29/2023 15:09:56 03/29/2023 15:10:00 03/29/2023 15:09:58 98.58
